| time (UTC) | temp C | wind direction | speed KPH | gust KPH | rain 1hr cm | rain 24hr cm | rain mn cm | humidity % | barometer mb |
| 20260502151804 | 18 | 166 | 17.7 | 27.4 | 0.00 | 0.00 | 0.00 | 62 | 1016.0 |
| 20260502150804 | 18 | 119 | 12.9 | 24.1 | 0.00 | 0.00 | 0.00 | 65 | 1015.8 |
| 20260502123804 | 18 | 153 | 16.1 | 25.7 | 0.00 | 0.00 | 0.00 | 63 | 1017.9 |
| 20260502122804 | 17 | 153 | 11.3 | 27.4 | 0.00 | 0.00 | 0.00 | 67 | 1018.4 |
| 20260502122306 | 17 | 128 | 16.1 | 29.0 | 0.00 | 0.00 | 0.00 | 66 | 1018.5 |
| 20260502121804 | 18 | 162 | 14.5 | 24.1 | 0.00 | 0.00 | 0.00 | 64 | 1018.2 |
| 20260502121303 | 18 | 150 | 12.9 | 20.9 | 0.00 | 0.00 | 0.00 | 64 | 1018.3 |
| 20260502120803 | 17 | 169 | 14.5 | 24.1 | 0.00 | 0.00 | 0.00 | 66 | 1018.5 |
| 20260502120304 | 17 | 130 | 14.5 | 24.1 | 0.00 | 0.00 | 0.00 | 67 | 1018.6 |
| 20260502115804 | 17 | 148 | 14.5 | 25.7 | 0.00 | 0.00 | 0.00 | 68 | 1018.7 |
| 20260502114804 | 18 | 136 | 11.3 | 25.7 | 0.00 | 0.00 | 0.00 | 67 | 1018.4 |
| 20260502114304 | 18 | 150 | 14.5 | 27.4 | 0.00 | 0.00 | 0.00 | 66 | 1018.6 |
| 20260502113804 | 17 | 107 | 11.3 | 22.5 | 0.00 | 0.00 | 0.00 | 66 | 1018.8 |
| 20260502113304 | 17 | 136 | 11.3 | 24.1 | 0.00 | 0.00 | 0.00 | 67 | 1018.8 |
| 20260502112803 | 17 | 121 | 9.7 | 22.5 | 0.00 | 0.00 | 0.00 | 67 | 1018.7 |
| 20260502112305 | 17 | 140 | 9.7 | 20.9 | 0.00 | 0.00 | 0.00 | 68 | 1019.0 |
| 20260502111804 | 17 | 162 | 9.7 | 20.9 | 0.00 | 0.00 | 0.00 | 69 | 1019.1 |
| 20260502111304 | 17 | 149 | 14.5 | 24.1 | 0.00 | 0.00 | 0.00 | 69 | 1019.0 |
| 20260502110804 | 17 | 131 | 11.3 | 22.5 | 0.00 | 0.00 | 0.00 | 69 | 1019.2 |
| 20260502110304 | 17 | 150 | 11.3 | 22.5 | 0.00 | 0.00 | 0.00 | 70 | 1019.4 |
| 20260502105803 | 16 | 169 | 9.7 | 20.9 | 0.00 | 0.00 | 0.00 | 72 | 1019.6 |
| 20260502105306 | 16 | 129 | 12.9 | 20.9 | 0.00 | 0.00 | 0.00 | 72 | 1019.5 |
| 20260502104803 | 16 | 153 | 8.0 | 19.3 | 0.00 | 0.00 | 0.00 | 73 | 1019.7 |
| 20260502104304 | 16 | 134 | 11.3 | 24.1 | 0.00 | 0.00 | 0.00 | 73 | 1019.7 |
| 20260502103804 | 16 | 128 | 6.4 | 16.1 | 0.00 | 0.00 | 0.00 | 73 | 1019.8 |
| 20260502103304 | 16 | 133 | 9.7 | 19.3 | 0.00 | 0.00 | 0.00 | 72 | 1020.0 |
| 20260502102804 | 16 | 123 | 9.7 | 20.9 | 0.00 | 0.00 | 0.00 | 72 | 1019.9 |
| 20260502101803 | 16 | 127 | 11.3 | 22.5 | 0.00 | 0.00 | 0.00 | 72 | 1020.0 |
| 20260502100804 | 16 | 127 | 11.3 | 20.9 | 0.00 | 0.00 | 0.00 | 72 | 1019.9 |
| 20260502100304 | 16 | 139 | 11.3 | 24.1 | 0.00 | 0.00 | 0.00 | 71 | 1019.6 |
| 20260502091304 | 15 | 128 | 9.7 | 22.5 | 0.00 | 0.00 | 0.00 | 76 | 1019.7 |
| 20260502090804 | 15 | 127 | 14.5 | 27.4 | 0.00 | 0.00 | 0.00 | 76 | 1019.5 |
| 20260502090303 | 15 | 119 | 14.5 | 25.7 | 0.00 | 0.00 | 0.00 | 77 | 1019.7 |
| 20260502071304 | 13 | 142 | 8.0 | 19.3 | 0.00 | 0.00 | 0.00 | 83 | 1020.3 |
| 20260502070803 | 13 | 116 | 8.0 | 16.1 | 0.00 | 0.00 | 0.00 | 84 | 1020.2 |
| 20260502070303 | 13 | 144 | 3.2 | 16.1 | 0.00 | 0.00 | 0.00 | 84 | 1020.3 |
| 20260502065804 | 13 | 126 | 8.0 | 16.1 | 0.00 | 0.00 | 0.00 | 84 | 1020.2 |
| 20260502065306 | 13 | 162 | 8.0 | 16.1 | 0.00 | 0.00 | 0.00 | 85 | 1020.1 |
| 20260502064804 | 13 | 113 | 4.8 | 11.3 | 0.00 | 0.00 | 0.00 | 85 | 1020.0 |
| 20260502063804 | 13 | 146 | 8.0 | 19.3 | 0.00 | 0.00 | 0.00 | 86 | 1020.0 |
| 20260502063304 | 13 | 113 | 9.7 | 19.3 | 0.00 | 0.00 | 0.00 | 86 | 1020.1 |
| 20260502062803 | 13 | 90 | 4.8 | 16.1 | 0.00 | 0.00 | 0.00 | 86 | 1019.9 |
| 20260502061804 | 13 | 143 | 6.4 | 14.5 | 0.00 | 0.00 | 0.00 | 87 | 1019.6 |
| 20260502061303 | 13 | 89 | 4.8 | 19.3 | 0.00 | 0.00 | 0.00 | 87 | 1019.7 |
| 20260502060804 | 12 | 118 | 6.4 | 16.1 | 0.00 | 0.00 | 0.00 | 88 | 1019.7 |
| 20260502060304 | 12 | 84 | 4.8 | 12.9 | 0.00 | 0.00 | 0.00 | 88 | 1019.6 |
| 20260502055804 | 12 | 85 | 6.4 | 12.9 | 0.00 | 0.00 | 0.00 | 88 | 1019.4 |
| 20260502055306 | 12 | 106 | 6.4 | 12.9 | 0.00 | 0.00 | 0.00 | 88 | 1019.4 |
| 20260502054804 | 12 | 120 | 8.0 | 16.1 | 0.00 | 0.00 | 0.00 | 89 | 1019.6 |
| 20260502054304 | 12 | 141 | 6.4 | 19.3 | 0.00 | 0.00 | 0.00 | 89 | 1019.7 |
| 20260502053804 | 12 | 156 | 8.0 | 16.1 | 0.00 | 0.00 | 0.00 | 89 | 1019.4 |
| 20260502053304 | 12 | 175 | 4.8 | 14.5 | 0.00 | 0.00 | 0.00 | 89 | 1019.2 |
| 20260502052803 | 12 | 153 | 4.8 | 16.1 | 0.00 | 0.00 | 0.00 | 89 | 1019.5 |
| 20260502052306 | 12 | 103 | 8.0 | 19.3 | 0.00 | 0.00 | 0.00 | 90 | 1019.6 |
| 20260502051804 | 12 | 138 | 8.0 | 20.9 | 0.00 | 0.00 | 0.00 | 90 | 1019.3 |
| 20260502051303 | 12 | 124 | 8.0 | 16.1 | 0.00 | 0.00 | 0.00 | 90 | 1019.1 |
| 20260502050304 | 12 | 66 | 8.0 | 16.1 | 0.00 | 0.00 | 0.00 | 90 | 1019.0 |
| 20260502045804 | 12 | 160 | 8.0 | 20.9 | 0.00 | 0.00 | 0.00 | 90 | 1018.9 |
| 20260502044803 | 12 | 101 | 8.0 | 20.9 | 0.00 | 0.00 | 0.00 | 90 | 1018.8 |
| 20260502044304 | 12 | 90 | 8.0 | 20.9 | 0.00 | 0.00 | 0.00 | 90 | 1019.0 |
| 20260502043804 | 12 | 90 | 9.7 | 19.3 | 0.00 | 0.00 | 0.00 | 90 | 1018.9 |
| 20260502043303 | 12 | 106 | 8.0 | 22.5 | 0.00 | 0.00 | 0.00 | 91 | 1018.7 |
| 20260502042306 | 12 | 122 | 9.7 | 20.9 | 0.00 | 0.00 | 0.00 | 90 | 1019.0 |
| 20260502041804 | 12 | 150 | 6.4 | 19.3 | 0.00 | 0.00 | 0.00 | 90 | 1018.8 |
| 20260502041303 | 12 | 138 | 8.0 | 22.5 | 0.00 | 0.00 | 0.00 | 90 | 1018.6 |
| 20260502040804 | 12 | 153 | 9.7 | 25.7 | 0.00 | 0.00 | 0.00 | 90 | 1018.8 |
| 20260502040304 | 12 | 147 | 9.7 | 16.1 | 0.00 | 0.00 | 0.00 | 90 | 1018.8 |
| 20260502035803 | 12 | 123 | 11.3 | 19.3 | 0.00 | 0.00 | 0.00 | 90 | 1018.8 |
| 20260502035306 | 12 | 111 | 9.7 | 25.7 | 0.00 | 0.00 | 0.00 | 90 | 1018.9 |
| 20260502033304 | 12 | 88 | 9.7 | 19.3 | 0.00 | 0.00 | 0.00 | 90 | 1019.2 |
| 20260502032804 | 12 | 150 | 8.0 | 16.1 | 0.00 | 0.00 | 0.00 | 90 | 1019.2 |
| 20260502032306 | 12 | 110 | 9.7 | 19.3 | 0.00 | 0.00 | 0.00 | 90 | 1019.3 |
| 20260502031804 | 12 | 127 | 8.0 | 19.3 | 0.00 | 0.00 | 0.00 | 90 | 1019.4 |
| 20260502031304 | 12 | 101 | 11.3 | 27.4 | 0.00 | 0.00 | 0.00 | 90 | 1019.4 |
| 20260502030804 | 12 | 116 | 8.0 | 19.3 | 0.00 | 0.00 | 0.00 | 90 | 1019.3 |
| 20260502030304 | 12 | 174 | 9.7 | 19.3 | 0.00 | 0.00 | 0.00 | 90 | 1019.3 |
| 20260502025804 | 12 | 164 | 8.0 | 19.3 | 0.00 | 0.00 | 0.00 | 90 | 1019.3 |
| 20260502025306 | 12 | 95 | 9.7 | 22.5 | 0.00 | 0.00 | 0.00 | 90 | 1019.4 |
| 20260502024804 | 12 | 98 | 9.7 | 24.1 | 0.00 | 0.00 | 0.00 | 90 | 1019.4 |
| 20260502024304 | 12 | 119 | 9.7 | 19.3 | 0.00 | 0.00 | 0.00 | 90 | 1019.2 |
| 20260502023804 | 12 | 94 | 8.0 | 20.9 | 0.00 | 0.00 | 0.00 | 90 | 1019.1 |
| 20260502021304 | 12 | 126 | 9.7 | 19.3 | 0.00 | 0.00 | 0.00 | 90 | 1019.9 |
| 20260502020804 | 12 | 130 | 11.3 | 25.7 | 0.00 | 0.00 | 0.00 | 90 | 1019.7 |
| 20260502020304 | 12 | 83 | 11.3 | 20.9 | 0.00 | 0.00 | 0.00 | 90 | 1019.6 |
| 20260502015804 | 12 | 125 | 9.7 | 20.9 | 0.00 | 0.00 | 0.00 | 90 | 1019.6 |
| 20260502015305 | 12 | 101 | 9.7 | 25.7 | 0.00 | 0.00 | 0.00 | 89 | 1019.6 |
| 20260502014804 | 12 | 114 | 11.3 | 22.5 | 0.00 | 0.00 | 0.00 | 89 | 1019.6 |
| 20260502014303 | 12 | 97 | 11.3 | 24.1 | 0.00 | 0.00 | 0.00 | 89 | 1019.6 |
| 20260502013804 | 12 | 120 | 11.3 | 20.9 | 0.00 | 0.00 | 0.00 | 88 | 1019.5 |
| 20260502012804 | 13 | 98 | 9.7 | 20.9 | 0.00 | 0.00 | 0.00 | 88 | 1019.6 |
| 20260502012306 | 13 | 107 | 11.3 | 22.5 | 0.00 | 0.00 | 0.00 | 88 | 1019.6 |
| 20260502010304 | 13 | 137 | 9.7 | 22.5 | 0.00 | 0.00 | 0.00 | 88 | 1019.5 |
| 20260502005803 | 13 | 146 | 9.7 | 22.5 | 0.00 | 0.00 | 0.00 | 88 | 1019.4 |
| 20260502005306 | 13 | 138 | 9.7 | 22.5 | 0.00 | 0.00 | 0.00 | 87 | 1019.4 |
| 20260502004804 | 13 | 111 | 8.0 | 20.9 | 0.00 | 0.00 | 0.00 | 87 | 1019.6 |
| 20260502004303 | 13 | 165 | 8.0 | 20.9 | 0.00 | 0.00 | 0.00 | 87 | 1019.7 |
| 20260502003804 | 13 | 160 | 9.7 | 19.3 | 0.00 | 0.00 | 0.00 | 87 | 1019.8 |
| 20260502003304 | 13 | 113 | 8.0 | 22.5 | 0.00 | 0.00 | 0.00 | 88 | 1019.9 |
| 20260502002803 | 13 | 150 | 11.3 | 22.5 | 0.00 | 0.00 | 0.00 | 88 | 1020.1 |
| 20260502002305 | 13 | 99 | 11.3 | 19.3 | 0.00 | 0.00 | 0.00 | 88 | 1019.9 |
| 20260502001804 | 13 | 121 | 9.7 | 20.9 | 0.00 | 0.00 | 0.00 | 88 | 1020.0 |
| 20260502001304 | 13 | 126 | 11.3 | 22.5 | 0.00 | 0.00 | 0.00 | 88 | 1020.0 |
| 20260502000804 | 13 | 155 | 8.0 | 20.9 | 0.00 | 0.00 | 0.00 | 88 | 1020.2 |
| 20260502000304 | 13 | 122 | 9.7 | 16.1 | 0.00 | 0.00 | 0.00 | 88 | 1020.3 |
| 20260501235803 | 13 | 133 | 9.7 | 19.3 | 0.00 | 0.00 | 0.00 | 88 | 1020.3 |
| 20260501235305 | 13 | 113 | 9.7 | 22.5 | 0.00 | 0.00 | 0.00 | 88 | 1020.4 |
| 20260501234804 | 13 | 98 | 8.0 | 19.3 | 0.00 | 0.00 | 0.00 | 88 | 1020.5 |
| 20260501234304 | 13 | 136 | 9.7 | 16.1 | 0.00 | 0.00 | 0.00 | 88 | 1020.5 |
| 20260501233803 | 13 | 91 | 9.7 | 20.9 | 0.00 | 0.00 | 0.00 | 88 | 1020.5 |
| 20260501233304 | 13 | 124 | 8.0 | 22.5 | 0.00 | 0.00 | 0.00 | 88 | 1020.6 |
| 20260501232804 | 13 | 134 | 9.7 | 19.3 | 0.00 | 0.00 | 0.00 | 88 | 1020.8 |
| 20260501231803 | 13 | 97 | 9.7 | 19.3 | 0.00 | 0.00 | 0.00 | 88 | 1020.7 |
| 20260501231303 | 13 | 129 | 9.7 | 24.1 | 0.00 | 0.00 | 0.00 | 88 | 1020.7 |
| 20260501230804 | 13 | 88 | 11.3 | 20.9 | 0.00 | 0.00 | 0.00 | 88 | 1020.7 |
| 20260501230304 | 13 | 67 | 11.3 | 20.9 | 0.00 | 0.00 | 0.00 | 88 | 1020.5 |
| 20260501225804 | 13 | 92 | 8.0 | 20.9 | 0.00 | 0.00 | 0.00 | 88 | 1020.7 |
| 20260501225306 | 13 | 82 | 8.0 | 19.3 | 0.00 | 0.00 | 0.00 | 88 | 1020.7 |
| 20260501224303 | 13 | 105 | 9.7 | 20.9 | 0.00 | 0.00 | 0.00 | 88 | 1020.8 |
| 20260501223804 | 13 | 95 | 9.7 | 22.5 | 0.00 | 0.00 | 0.00 | 88 | 1020.8 |
| 20260501223303 | 13 | 121 | 11.3 | 25.7 | 0.00 | 0.00 | 0.00 | 88 | 1021.0 |
| 20260501222803 | 13 | 101 | 9.7 | 22.5 | 0.00 | 0.00 | 0.00 | 88 | 1020.8 |
| 20260501221804 | 13 | 82 | 9.7 | 22.5 | 0.00 | 0.00 | 0.00 | 87 | 1020.9 |
| 20260501221304 | 13 | 76 | 11.3 | 24.1 | 0.00 | 0.00 | 0.00 | 87 | 1020.9 |
| 20260501220804 | 13 | 90 | 9.7 | 22.5 | 0.00 | 0.00 | 0.00 | 87 | 1020.8 |
| 20260501220304 | 13 | 145 | 11.3 | 22.5 | 0.00 | 0.00 | 0.00 | 87 | 1020.9 |
| 20260501215305 | 13 | 144 | 12.9 | 25.7 | 0.00 | 0.00 | 0.00 | 87 | 1021.0 |
| 20260501214803 | 13 | 51 | 9.7 | 22.5 | 0.00 | 0.00 | 0.00 | 87 | 1021.2 |
| 20260501214303 | 13 | 140 | 12.9 | 20.9 | 0.00 | 0.00 | 0.00 | 87 | 1021.0 |
| 20260501213304 | 13 | 70 | 9.7 | 24.1 | 0.00 | 0.00 | 0.00 | 87 | 1021.2 |
| 20260501212804 | 13 | 87 | 14.5 | 25.7 | 0.00 | 0.00 | 0.00 | 87 | 1021.0 |
| 20260501211803 | 13 | 98 | 11.3 | 25.7 | 0.00 | 0.00 | 0.00 | 87 | 1021.2 |
| 20260501211303 | 13 | 122 | 9.7 | 20.9 | 0.00 | 0.00 | 0.00 | 87 | 1021.1 |
| 20260501210804 | 13 | 120 | 9.7 | 22.5 | 0.00 | 0.00 | 0.00 | 86 | 1021.2 |
| 20260501210304 | 13 | 129 | 11.3 | 25.7 | 0.00 | 0.00 | 0.00 | 86 | 1021.2 |
| 20260501205803 | 13 | 115 | 11.3 | 22.5 | 0.00 | 0.00 | 0.00 | 86 | 1021.2 |
| 20260501204304 | 13 | 117 | 9.7 | 24.1 | 0.00 | 0.00 | 0.00 | 85 | 1021.0 |
| 20260501203804 | 13 | 119 | 9.7 | 24.1 | 0.00 | 0.00 | 0.00 | 85 | 1021.1 |
| 20260501203304 | 13 | 76 | 9.7 | 22.5 | 0.00 | 0.00 | 0.00 | 84 | 1021.1 |
| 20260501202306 | 13 | 91 | 9.7 | 20.9 | 0.00 | 0.00 | 0.00 | 84 | 1021.0 |
| 20260501201803 | 13 | 72 | 12.9 | 24.1 | 0.00 | 0.00 | 0.00 | 85 | 1020.9 |
| 20260501201304 | 13 | 167 | 9.7 | 22.5 | 0.00 | 0.00 | 0.00 | 85 | 1020.7 |
| 20260501200804 | 13 | 90 | 9.7 | 20.9 | 0.00 | 0.00 | 0.00 | 85 | 1020.9 |
| 20260501200304 | 14 | 116 | 12.9 | 29.0 | 0.00 | 0.00 | 0.00 | 85 | 1020.9 |
| 20260501195305 | 14 | 137 | 11.3 | 27.4 | 0.00 | 0.00 | 0.00 | 85 | 1020.7 |
| 20260501194804 | 14 | 98 | 14.5 | 25.7 | 0.00 | 0.00 | 0.00 | 85 | 1020.6 |
| 20260501194304 | 14 | 83 | 11.3 | 25.7 | 0.00 | 0.00 | 0.00 | 85 | 1020.7 |
| 20260501193804 | 14 | 150 | 9.7 | 22.5 | 0.00 | 0.00 | 0.00 | 85 | 1020.8 |
| 20260501193304 | 14 | 92 | 9.7 | 20.9 | 0.00 | 0.00 | 0.00 | 84 | 1020.6 |
| 20260501192804 | 15 | 82 | 8.0 | 22.5 | 0.00 | 0.00 | 0.00 | 84 | 1020.4 |
| 20260501192306 | 15 | 95 | 9.7 | 20.9 | 0.00 | 0.00 | 0.00 | 83 | 1020.6 |
| 20260501191803 | 15 | 65 | 9.7 | 22.5 | 0.00 | 0.00 | 0.00 | 83 | 1020.4 |
| 20260501191304 | 15 | 69 | 8.0 | 22.5 | 0.00 | 0.00 | 0.00 | 82 | 1020.4 |
| 20260501190803 | 15 | 79 | 9.7 | 24.1 | 0.00 | 0.00 | 0.00 | 81 | 1020.3 |
| 20260501190304 | 15 | 95 | 8.0 | 22.5 | 0.00 | 0.00 | 0.00 | 81 | 1020.2 |
| 20260501185306 | 15 | 92 | 9.7 | 16.1 | 0.00 | 0.00 | 0.00 | 80 | 1020.2 |
| 20260501184303 | 16 | 96 | 9.7 | 19.3 | 0.00 | 0.00 | 0.00 | 79 | 1020.1 |
| 20260501183304 | 16 | 74 | 9.7 | 22.5 | 0.00 | 0.00 | 0.00 | 77 | 1019.9 |
| 20260501182804 | 16 | 0 | 11.3 | 25.7 | 0.00 | 0.00 | 0.00 | 77 | 1019.8 |
| 20260501182306 | 16 | 128 | 9.7 | 20.9 | 0.00 | 0.00 | 0.00 | 77 | 1019.5 |
| 20260501181803 | 17 | 118 | 9.7 | 25.7 | 0.00 | 0.00 | 0.00 | 76 | 1019.5 |
| 20260501181304 | 17 | 111 | 9.7 | 24.1 | 0.00 | 0.00 | 0.00 | 75 | 1019.5 |
| 20260501180803 | 17 | 77 | 11.3 | 20.9 | 0.00 | 0.00 | 0.00 | 75 | 1019.5 |
| 20260501180304 | 17 | 113 | 8.0 | 16.1 | 0.00 | 0.00 | 0.00 | 73 | 1019.2 |
| 20260501175804 | 17 | 119 | 9.7 | 20.9 | 0.00 | 0.00 | 0.00 | 72 | 1019.3 |
| 20260501175306 | 18 | 118 | 9.7 | 16.1 | 0.00 | 0.00 | 0.00 | 72 | 1019.2 |
| 20260501174304 | 18 | 98 | 11.3 | 19.3 | 0.00 | 0.00 | 0.00 | 70 | 1019.1 |
| 20260501173304 | 18 | 98 | 11.3 | 25.7 | 0.00 | 0.00 | 0.00 | 67 | 1018.9 |
| 20260501172803 | 18 | 129 | 9.7 | 20.9 | 0.00 | 0.00 | 0.00 | 66 | 1018.9 |
| 20260501172305 | 19 | 115 | 11.3 | 22.5 | 0.00 | 0.00 | 0.00 | 65 | 1019.0 |
| 20260501171804 | 18 | 142 | 9.7 | 20.9 | 0.00 | 0.00 | 0.00 | 65 | 1019.0 |
| 20260501171303 | 19 | 112 | 14.5 | 22.5 | 0.00 | 0.00 | 0.00 | 65 | 1018.8 |
| 20260501170804 | 19 | 112 | 11.3 | 20.9 | 0.00 | 0.00 | 0.00 | 64 | 1018.8 |
| 20260501170303 | 20 | 132 | 8.0 | 20.9 | 0.00 | 0.00 | 0.00 | 63 | 1018.8 |
| 20260501165804 | 20 | 110 | 9.7 | 20.9 | 0.00 | 0.00 | 0.00 | 63 | 1018.8 |
| 20260501165306 | 20 | 116 | 9.7 | 19.3 | 0.00 | 0.00 | 0.00 | 63 | 1018.6 |
| 20260501164804 | 20 | 148 | 9.7 | 22.5 | 0.00 | 0.00 | 0.00 | 62 | 1018.6 |
| 20260501163804 | 20 | 115 | 9.7 | 22.5 | 0.00 | 0.00 | 0.00 | 61 | 1018.6 |
| 20260501163304 | 20 | 90 | 8.0 | 22.5 | 0.00 | 0.00 | 0.00 | 60 | 1018.4 |
| 20260501162807 | 20 | 164 | 8.0 | 22.5 | 0.00 | 0.00 | 0.00 | 60 | 1018.7 |
| 20260501161806 | 20 | 122 | 9.7 | 22.5 | 0.00 | 0.00 | 0.00 | 59 | 1018.5 |
| 20260501160806 | 21 | 166 | 8.0 | 20.9 | 0.00 | 0.00 | 0.00 | 58 | 1018.5 |
| 20260501160306 | 21 | 110 | 9.7 | 19.3 | 0.00 | 0.00 | 0.00 | 58 | 1018.4 |
| 20260501155806 | 21 | 131 | 8.0 | 22.5 | 0.00 | 0.00 | 0.00 | 58 | 1018.5 |
| 20260501155306 | 20 | 128 | 12.9 | 24.1 | 0.00 | 0.00 | 0.00 | 58 | 1018.4 |
| 20260501154806 | 21 | 127 | 14.5 | 22.5 | 0.00 | 0.00 | 0.00 | 57 | 1018.1 |
| 20260501154306 | 20 | 132 | 12.9 | 24.1 | 0.00 | 0.00 | 0.00 | 58 | 1018.3 |
| 20260501153806 | 21 | 160 | 14.5 | 24.1 | 0.00 | 0.00 | 0.00 | 57 | 1018.2 |